Anchorage, AK

5:48 AM AKDT on August 27, 2016 (GMT -0800)
Stevens Anchorage International

Weather History for PANC - July, 2012

Change the Weather History Date:

Friday, July 6, 2012

  Actual Average Record
Temperature  
Mean Temperature 52 °F 58 °F  
Max Temperature 59 °F 65 °F 81 °F (2015)
Min Temperature 45 °F 52 °F 53 °F (1966)
Degree Days  
Heating Degree Days 13    
Month to date heating degree days 72  
Since 1 June heating degree days 385  
Since 1 July heating degree days 72  
Cooling Degree Days 0    
Month to date cooling degree days 0  
Year to date cooling degree days 0  
Since 1 June cooling degree days 0  
Growing Degree Days 3 (Base 50)    
Moisture  
Dew Point 44 °F    
Average Humidity 75    
Maximum Humidity 93    
Minimum Humidity 57    
Precipitation  
Precipitation 0.00 in 0.04 in 0.32 in (1960)
Month to date precipitation 0.16 0.26  
Year to date precipitation 6.20 4.47  
Snow  
Snow 0.00 in 0.00 in 0.00 in ()
Month to date snowfall 0.0 0.0  
Since 1 June snowfall 0.0 0.0  
Since 1 July snowfall 0.0 0.0  
Snow Depth 0.00 in    
Sea Level Pressure  
Sea Level Pressure 29.87 in    
Wind  
Wind Speed 3 mph (SSE)    
Max Wind Speed 8 mph    
Max Gust Speed 21 mph    
Visibility 10 miles    
Events      
T = Trace of Precipitation, MM = Missing Value Source: NWS Daily Summary

Daily Weather History Graph

Daily Weather History Graph

Search for Another Location

Airport or City:

Trip Planner

Search our weather history database for the weather conditions in past years. The results will help you decide how hot, cold, wet, or windy it might be!

Date:

Astronomy

Jul. 06, 2012 Rise Set
Actual Time 4:36 AM AKDT 11:32 PM AKDT
Civil Twilight 2:34 AM AKDT 1:29 AM AKDT
Nautical Twilight Sun does not set Sun does not set
Astronomical Twilight Sun does not set Sun does not set
Moon 11:50 PM AKDT (7/6) 9:31 AM AKDT (7/6)
Length of Visible Light 22h 54m
Length of Day
18h 55m
Waning Gibbous, 88% of the Moon is Illuminated
Jul 6
Waning Gibbous
Jul 10
Last Quarter
Jul 18
New
Jul 26
First Quarter
Aug 1
Full

Hourly Weather History & Observations

Time (AKDT) Temp. Dew Point Humidity Pressure Visibility Wind Dir Wind Speed Gust Speed Precip Events Conditions
12:53 AM 50.0 °F 43.0 °F 77% 29.86 in 10.0 mi SE 8.1 mph - N/A   Mostly Cloudy
1:53 AM 50.0 °F 42.1 °F 74% 29.88 in 10.0 mi Calm Calm - N/A   Mostly Cloudy
2:53 AM 48.0 °F 44.1 °F 86% 29.88 in 10.0 mi SE 4.6 mph - N/A   Mostly Cloudy
3:53 AM 48.0 °F 44.1 °F 86% 29.89 in 10.0 mi Calm Calm - N/A   Mostly Cloudy
4:53 AM 46.9 °F 44.1 °F 90% 29.89 in 10.0 mi Calm Calm - N/A   Mostly Cloudy
5:53 AM 46.9 °F 44.1 °F 90% 29.90 in 10.0 mi Calm Calm - N/A   Mostly Cloudy
6:53 AM 48.0 °F 44.1 °F 86% 29.90 in 10.0 mi SSW 3.5 mph - N/A   Mostly Cloudy
7:53 AM 48.9 °F 45.0 °F 86% 29.90 in 10.0 mi Calm Calm - N/A   Mostly Cloudy
8:53 AM 53.1 °F 45.0 °F 74% 29.90 in 10.0 mi Calm Calm - N/A   Mostly Cloudy
9:53 AM 55.0 °F 45.0 °F 69% 29.90 in 10.0 mi NW 3.5 mph - N/A   Mostly Cloudy
10:53 AM 57.0 °F 45.0 °F 64% 29.89 in 10.0 mi NW 3.5 mph - N/A   Scattered Clouds
11:53 AM 55.9 °F 43.0 °F 62% 29.89 in 10.0 mi Calm Calm - N/A   Scattered Clouds
12:53 PM 57.0 °F 42.1 °F 57% 29.88 in 10.0 mi SSW 5.8 mph - N/A   Scattered Clouds
1:53 PM 57.0 °F 43.0 °F 59% 29.87 in 10.0 mi South 5.8 mph - N/A   Mostly Cloudy
2:53 PM 57.9 °F 44.1 °F 60% 29.86 in 10.0 mi SSE 8.1 mph - N/A   Mostly Cloudy
3:53 PM 57.9 °F 44.1 °F 60% 29.86 in 10.0 mi SSE 8.1 mph - N/A   Overcast
4:53 PM 59.0 °F 44.1 °F 58% 29.85 in 10.0 mi SSE 6.9 mph - N/A   Overcast
5:53 PM 59.0 °F 44.1 °F 58% 29.84 in 10.0 mi SSE 12.7 mph 20.7 mph N/A   Overcast
6:53 PM 59.0 °F 44.1 °F 58% 29.85 in 10.0 mi SSE 12.7 mph 20.7 mph N/A   Overcast
7:53 PM 57.9 °F 43.0 °F 58% 29.85 in 10.0 mi SSE 15.0 mph - N/A   Overcast
8:53 PM 57.9 °F 43.0 °F 58% 29.85 in 10.0 mi SSE 11.5 mph - 0.00 in   Overcast
9:53 PM 57.0 °F 44.1 °F 62% 29.85 in 10.0 mi SSE 11.5 mph - N/A   Overcast
10:53 PM 55.9 °F 44.1 °F 64% 29.86 in 10.0 mi SSE 13.8 mph 20.7 mph N/A   Overcast
11:53 PM 55.9 °F 42.1 °F 60% 29.87 in 10.0 mi SSE 11.5 mph - N/A   Overcast